[[{"header":{"parameterUnit":"m.s-1","parameterCategory":2,"la1":30.2991,"la2":30.254,"lo1":-89.0895,"lo2":-89.0444,"dy":0.0017,"dx":0.0017,"nx":28,"ny":28,"refTime":"2025-08-04T21:00:00:Z","depth":"0","parameterNumber":2,"parameterNumberName":"U-component_of_CURRENTS"},"data":[0,0,0,0,0,0,0,0,0,0,0,0,0,0,0,0,0,0,0,0,0,0,0,0,0,0,0,0,0,0,0,0,0,0,0,0,0,0,0,0,0,0,0,0,0,0,0,0,0,0,0,0,0,0,0,0,0,0,-0.3297,-0.3298,0,-0.3367,-0.3367,-0.3367,-0.3339,-0.3338,-0.3338,-0.3337,-0.3315,-0.3315,-0.3315,0,0,0,0,0,0,0,0,0,0,0,0,0,-0.2993,-0.2999,-0.3296,-0.3298,-0.33,-0.3367,-0.3367,-0.3367,-0.334,-0.3338,-0.3337,-0.3336,-0.3315,-0.3315,-0.3315,0,0,0,0,0,0,0,0,0,0,0,0,0,-0.3093,-0.3001,-0.3296,-0.3299,-0.3301,-0.3367,-0.3367,-0.3367,-0.334,-0.3338,-0.3337,-0.3336,-0.3315,-0.3315,-0.3315,-0.3347,0,0,-0.3317,-0.3317,0,0,0,0,0,0,0,0,-0.3088,-0.3104,-0.3297,-0.3299,-0.3301,-0.3349,-0.3252,-0.3359,-0.334,-0.3317,-0.3337,-0.3335,-0.3324,-0.3323,-0.3331,-0.3346,-0.3345,-0.3317,-0.3317,-0.3317,-0.3318,0,0,0,0,0,0,0,-0.3081,-0.31,-0.3317,-0.3299,-0.3302,-0.3248,-0.3261,-0.3271,-0.332,-0.3319,-0.3319,-0.3339,-0.3323,-0.333,-0.333,-0.3345,-0.3317,-0.3317,-0.3318,-0.3318,-0.3275,-0.3274,0,0,0,0,0,0,-0.3098,-0.3095,-0.3315,-0.332,-0.3197,-0.3256,-0.327,-0.3329,-0.3322,-0.3323,-0.334,-0.3338,-0.333,-0.3329,-0.3329,-0.3248,-0.3317,-0.3318,-0.3318,-0.3277,-0.3275,-0.3273,0,0,0,0,0,0,-0.3092,-0.3119,-0.3312,-0.3211,-0.3233,-0.3264,-0.333,-0.3332,-0.3335,-0.3341,-0.3337,-0.3343,-0.3329,-0.3328,-0.3318,-0.3251,-0.3318,-0.3319,-0.3278,-0.3276,-0.3274,-0.3162,0,0,0,0,0,0,-0.3084,-0.3117,-0.3142,-0.3214,-0.324,-0.3314,-0.3332,-0.3334,-0.3354,-0.3351,-0.3342,-0.3339,-0.3328,-0.3317,-0.3318,-0.3253,-0.3319,-0.328,-0.3277,-0.3275,-0.3167,-0.3156,-0.3147,0,0,0,0,0,-0.3073,-0.3086,-0.3144,-0.3169,-0.3283,-0.3314,-0.3318,-0.3329,-0.3356,-0.3332,-0.3341,-0.3339,-0.3299,-0.3317,-0.3319,-0.3252,-0.3281,-0.3278,-0.3275,-0.3172,-0.3158,-0.3147,0,0,0,0,0,0,-0.2939,-0.3089,-0.3151,-0.3207,-0.3255,-0.3311,-0.329,-0.3336,-0.3331,-0.3326,-0.3341,-0.3336,-0.3291,-0.3308,-0.3327,-0.3234,-0.3283,-0.328,-0.3204,-0.3191,-0.3181,-0.3124,-0.3319,0,0,0,0,0,-0.2942,-0.2993,-0.312,-0.3147,-0.3182,-0.3252,-0.3265,-0.3291,-0.3314,-0.3311,-0.3313,-0.3307,-0.3283,-0.3268,-0.3252,-0.3225,-0.3217,-0.3179,-0.3169,-0.316,-0.3116,-0.3072,-0.3052,-0.3263,-0.3263,-0.3263,0,0,-0.2887,-0.2979,-0.3002,-0.3122,-0.3162,-0.317,-0.325,-0.3266,-0.3245,-0.331,-0.3258,-0.3275,-0.3272,-0.3214,-0.3195,-0.3216,-0.3099,-0.3156,-0.3147,-0.3108,-0.3066,-0.3045,-0.3026,-0.3261,-0.3261,-0.3262,0,0,-0.2778,-0.2902,-0.2905,-0.2953,-0.3038,-0.3089,-0.3102,-0.3175,-0.3175,-0.318,-0.3189,-0.3169,-0.3172,-0.3119,-0.3106,-0.3039,-0.3048,-0.3045,-0.2938,-0.2897,-0.2878,-0.2861,-0.2833,-0.2815,-0.3036,-0.3035,-0.3035,0,-0.2706,-0.2767,-0.2891,-0.2899,-0.2925,-0.3053,-0.3038,-0.3054,-0.3099,-0.3094,-0.3139,-0.3106,-0.3107,-0.3008,-0.2971,-0.3004,-0.3001,-0.2985,-0.2879,-0.2863,-0.2848,-0.2823,-0.2804,-0.303,-0.303,-0.3031,-0.3031,0,-0.2609,-0.2655,-0.2647,-0.2726,-0.2751,-0.2761,-0.2841,-0.2849,-0.291,-0.2937,-0.2895,-0.2911,-0.289,-0.288,-0.2904,-0.2785,-0.2825,-0.2874,-0.2904,-0.2819,-0.28,-0.2782,-0.3021,-0.3023,-0.3025,-0.3027,0,0,-0.2481,-0.2571,-0.2571,-0.2603,-0.2682,-0.2709,-0.2668,-0.2695,-0.2696,-0.2711,-0.2684,-0.2628,-0.2676,-0.266,-0.2684,-0.2634,-0.2535,-0.27,-0.2701,-0.2658,-0.245,-0.2404,-0.2382,-0.2577,-0.2573,-0.257,-0.2483,0,-0.238,-0.238,-0.2438,-0.2417,-0.2444,-0.2531,-0.25,-0.2525,-0.2572,-0.2573,-0.2569,-0.256,-0.258,-0.2599,-0.2534,-0.2563,-0.2482,-0.2554,-0.2549,-0.2548,-0.2506,-0.2356,-0.2273,-0.218,-0.2466,-0.2463,-0.2461,0,-0.2289,-0.2321,-0.229,-0.2354,-0.2371,-0.2355,-0.2397,-0.2388,-0.2396,-0.2432,-0.2401,-0.2444,-0.2361,-0.2427,-0.2332,-0.2389,-0.2375,-0.2383,-0.2382,-0.2353,-0.2467,-0.2311,-0.2138,-0.2132,-0.2435,-0.2437,-0.2439,0,-0.2205,-0.2228,-0.2216,-0.2232,-0.2296,-0.2284,-0.2314,-0.2335,-0.2348,-0.2346,-0.2373,-0.2303,-0.2315,-0.2256,-0.2271,-0.2307,-0.2193,-0.2263,-0.2179,-0.2179,-0.2106,-0.2104,-0.1904,-0.2131,-0.2132,-0.2132,-0.2132,0,-0.2124,-0.2118,-0.2187,-0.219,-0.2186,-0.2243,-0.2237,-0.226,-0.2285,-0.2281,-0.2301,-0.2286,-0.2276,-0.224,-0.2221,-0.2136,-0.2146,-0.2093,-0.212,-0.2068,-0.2064,-0.206,-0.2106,-0.2129,-0.2129,-0.213,-0.2131,0,-0.2033,-0.2073,-0.208,-0.2136,-0.2152,-0.2155,-0.2213,-0.2213,-0.2255,-0.225,-0.225,-0.2266,-0.2212,-0.2185,-0.2124,-0.2086,-0.1977,-0.1979,-0.1921,-0.1938,-0.1843,-0.1888,-0.1712,-0.1665,-0.1846,-0.1844,-0.1842,0,-0.1983,-0.1977,-0.2036,-0.2041,-0.2062,-0.2091,-0.2102,-0.2174,-0.2183,-0.2227,-0.221,-0.2185,-0.2123,-0.2018,-0.1945,-0.1844,-0.1874,-0.1729,-0.1741,-0.1748,-0.182,-0.1866,-0.1844,-0.1618,-0.1615,-0.1612,-0.161,0,-0.1885,-0.1909,-0.1921,-0.1941,-0.1957,-0.1982,-0.2014,-0.2028,-0.2099,-0.2098,-0.2076,-0.2033,-0.1949,-0.1811,-0.1715,-0.1655,-0.1689,-0.1665,-0.1671,-0.1576,-0.161,-0.1611,-0.18,-0.1584,-0.1586,-0.1588,-0.159,-0.1591,-0.1799,-0.1789,-0.1809,-0.1815,-0.1838,-0.1843,-0.1839,-0.1876,-0.1875,-0.1866,-0.1897,-0.1813,-0.1735,-0.1571,-0.151,-0.1405,-0.1474,-0.1375,-0.1418,-0.1456,-0.1408,-0.153,-0.1355,-0.1356,-0.1357,-0.1358,-0.1359,0,-0.1677,-0.1676,-0.1679,-0.1684,-0.166,-0.1718,-0.1748,-0.1726,-0.1685,-0.1683,-0.1636,-0.1543,-0.141,-0.1367,-0.1261,-0.1193,-0.1176,-0.118,-0.122,-0.12,-0.1285,-0.1272,-0.1071,-0.1071,-0.1071,-0.1071,-0.1071,-0.1071,-0.1608,-0.1561,-0.1569,-0.1494,-0.1498,-0.1461,-0.1461,-0.1449,-0.1443,-0.1345,-0.1308,-0.1275,-0.1257,-0.1301,-0.1194,-0.1126,-0.112,-0.1075,-0.1116,-0.1199,-0.1222,-0.1243,-0.1237,-0.1032,-0.1032,-0.0976,-0.0976,-0.0976]},{"header":{"parameterUnit":"m.s-1","parameterCategory":2,"la1":30.2991,"la2":30.254,"lo1":-89.0895,"lo2":-89.0444,"dy":0.0017,"dx":0.0017,"nx":28,"ny":28,"refTime":"2025-08-04T21:00:00:Z","depth":"0","parameterNumber":3,"parameterNumberName":"V-component_of_CURRENTS"},"data":[0,0,0,0,0,0,0,0,0,0,0,0,0,0,0,0,0,0,0,0,0,0,0,0,0,0,0,0,0,0,0,0,0,0,0,0,0,0,0,0,0,0,0,0,0,0,0,0,0,0,0,0,0,0,0,0,0,0,-0.0423,-0.0422,0,-0.0279,-0.0277,-0.0275,-0.017,-0.0169,-0.0168,-0.0167,0.003,0.0034,0.0039,0,0,0,0,0,0,0,0,0,0,0,0,0,-0.05,-0.05,-0.0423,-0.0422,-0.042,-0.0279,-0.0277,-0.0275,-0.017,-0.0169,-0.0168,-0.0167,0.0028,0.0034,0.0039,0,0,0,0,0,0,0,0,0,0,0,0,0,-0.0421,-0.05,-0.0424,-0.0352,-0.0344,-0.028,-0.0277,-0.0274,-0.017,-0.0169,-0.0168,-0.0167,0.0026,0.0033,0.004,0.0059,0,0,0.0061,0.0063,0,0,0,0,0,0,0,0,-0.0426,-0.0419,-0.0364,-0.0357,-0.0348,-0.0243,-0.0232,-0.0161,-0.017,-0.0234,-0.0167,-0.0166,-0.0058,-0.0045,-0.0018,0.0068,0.0077,0.0061,0.0065,0.0068,0.007,0,0,0,0,0,0,0,-0.0432,-0.0423,-0.0364,-0.0362,-0.0352,-0.029,-0.0278,-0.0217,-0.0152,-0.0229,-0.0221,-0.0208,-0.0053,-0.0025,-0.0013,0.008,0.0061,0.0067,0.0071,0.0074,0.0263,0.0264,0,0,0,0,0,0,-0.046,-0.043,-0.0369,-0.036,-0.0387,-0.029,-0.0277,-0.0276,-0.0154,-0.0135,-0.0209,-0.0204,-0.0037,-0.0021,-0.0005,0.0049,0.0068,0.0075,0.0078,0.0262,0.0263,0.0264,0,0,0,0,0,0,-0.0462,-0.0456,-0.0375,-0.0392,-0.0377,-0.0291,-0.029,-0.0274,-0.0246,-0.014,-0.0119,-0.0198,-0.0036,-0.0015,0.0051,0.0057,0.0078,0.0084,0.0261,0.0262,0.0263,0.0143,0,0,0,0,0,0,-0.0465,-0.0459,-0.0469,-0.0395,-0.0377,-0.0348,-0.0291,-0.0272,-0.024,-0.0232,-0.0124,-0.0104,-0.0033,0.004,0.0058,0.0067,0.0089,0.0259,0.0261,0.0263,0.0146,0.014,0.0136,0,0,0,0,0,-0.0469,-0.0489,-0.0471,-0.0463,-0.0395,-0.0349,-0.0335,-0.0267,-0.0242,-0.0237,-0.0158,-0.0108,0.0065,0.0045,0.0066,0.0077,0.0259,0.0261,0.0263,0.0148,0.0142,0.0136,0,0,0,0,0,0,-0.0526,-0.0478,-0.0456,-0.0461,-0.0415,-0.0332,-0.0322,-0.0281,-0.0216,-0.0206,-0.0107,-0.0082,-0.0017,0.0047,0.0023,0.0142,0.0175,0.0181,0.0081,0.0075,0.007,0.0051,0.0095,0,0,0,0,0,-0.0548,-0.055,-0.0491,-0.0495,-0.0479,-0.0406,-0.038,-0.0337,-0.027,-0.024,-0.0167,-0.0077,0.0008,0.0051,0.0128,0.018,0.0221,0.0208,0.0202,0.0197,0.0199,0.0238,0.0234,0.0271,0.0271,0.0271,0,0,-0.0568,-0.0545,-0.0543,-0.0507,-0.0466,-0.0445,-0.0387,-0.0358,-0.0331,-0.023,-0.0179,-0.0101,0.0017,0.0083,0.0119,0.0136,0.0211,0.02,0.0194,0.0199,0.0239,0.0235,0.0232,0.0272,0.0272,0.0272,0,0,-0.0604,-0.0595,-0.0602,-0.0574,-0.0528,-0.0484,-0.0484,-0.0414,-0.0375,-0.0325,-0.0231,-0.0155,-0.0045,0.0048,0.011,0.0123,0.0177,0.0151,0.011,0.0147,0.0143,0.014,0.0181,0.0183,0.0151,0.0151,0.0151,0,-0.0629,-0.0631,-0.0596,-0.0592,-0.057,-0.051,-0.0503,-0.0459,-0.0375,-0.0339,-0.0324,-0.0145,-0.0056,0.0053,0.0066,0.0109,0.0134,0.0115,0.0134,0.0133,0.0132,0.0175,0.0179,0.0146,0.0146,0.0147,0.0147,0,-0.066,-0.0661,-0.0666,-0.0641,-0.0617,-0.0607,-0.0545,-0.0519,-0.0475,-0.0416,-0.0327,-0.0216,-0.0102,-0.0061,0.001,0.0068,0.0088,0.0112,0.0134,0.012,0.0168,0.0174,0.0138,0.014,0.0141,0.0143,0,0,-0.0708,-0.0691,-0.0691,-0.0688,-0.0643,-0.0626,-0.0595,-0.0535,-0.0506,-0.0439,-0.0386,-0.0247,-0.0192,-0.0116,-0.0023,0.0014,0.0033,0.0051,0.0056,0.0064,0.0106,0.0147,0.0158,0.0041,0.0041,0.0042,0.0138,0,-0.0736,-0.0753,-0.0725,-0.0728,-0.073,-0.0672,-0.0644,-0.0585,-0.0526,-0.0467,-0.0357,-0.0271,-0.021,-0.0156,-0.0112,0.0012,0.0044,0.0005,0.0145,0.015,0.0165,0.0165,0.0208,0.0299,0.0144,0.0145,0.0146,0,-0.0765,-0.0775,-0.079,-0.0771,-0.0764,-0.0755,-0.0701,-0.0666,-0.0567,-0.0519,-0.0433,-0.0342,-0.023,-0.0202,-0.0046,-0.0081,0.0001,0.0072,0.0077,0.0163,0.0202,0.0295,0.0316,0.0439,0.0155,0.0155,0.0154,0,-0.0815,-0.0814,-0.0832,-0.0827,-0.0797,-0.0788,-0.0765,-0.0683,-0.0645,-0.0549,-0.0514,-0.0382,-0.0303,-0.0206,-0.0039,-0.005,0.0109,0.0119,0.0229,0.0233,0.0326,0.0338,0.0463,0.0199,0.0198,0.0198,0.0198,0,-0.0854,-0.0866,-0.0864,-0.0875,-0.0888,-0.0844,-0.0831,-0.0783,-0.0706,-0.0652,-0.0547,-0.0472,-0.0308,-0.0183,-0.0061,0.0112,0.0096,0.0226,0.0261,0.0288,0.0294,0.0453,0.0495,0.0202,0.0201,0.02,0.02,0,-0.0897,-0.0895,-0.092,-0.0915,-0.0915,-0.0924,-0.089,-0.0869,-0.0799,-0.0728,-0.0698,-0.0532,-0.0362,-0.0196,0.0001,0.0101,0.0338,0.0313,0.0339,0.0374,0.0575,0.0608,0.0777,0.0852,0.0441,0.0442,0.0443,0,-0.0917,-0.0938,-0.0963,-0.0981,-0.0983,-0.099,-0.0984,-0.0923,-0.0891,-0.0748,-0.0711,-0.0532,-0.0372,-0.008,0.0127,0.034,0.0428,0.049,0.0481,0.0598,0.0661,0.0682,0.0734,0.0561,0.0564,0.0565,0.0567,0,-0.0953,-0.0965,-0.0988,-0.1034,-0.105,-0.1058,-0.1045,-0.1029,-0.093,-0.0844,-0.0683,-0.0543,-0.0254,0.003,0.0292,0.0421,0.0586,0.0533,0.0654,0.0768,0.0801,0.0885,0.0485,0.0583,0.0581,0.058,0.0579,0.0579,-0.0971,-0.1003,-0.1036,-0.1073,-0.1096,-0.1097,-0.108,-0.1023,-0.0938,-0.0743,-0.0652,-0.0379,-0.0048,0.0343,0.0481,0.0777,0.0733,0.0869,0.0901,0.0912,0.0984,0.0616,0.0748,0.0747,0.0747,0.0746,0.0746,0,-0.098,-0.1018,-0.1065,-0.1102,-0.1123,-0.1124,-0.1088,-0.1003,-0.0864,-0.066,-0.0468,-0.0044,0.0301,0.0601,0.0974,0.1137,0.1169,0.1218,0.1265,0.1301,0.099,0.0994,0.1185,0.1185,0.1185,0.1185,0.1184,0.1184,-0.0985,-0.103,-0.1059,-0.1101,-0.1124,-0.1101,-0.1064,-0.0873,-0.0695,-0.0308,-0.0022,0.0168,0.0538,0.108,0.1432,0.1469,0.1608,0.1599,0.1662,0.1453,0.1423,0.1394,0.141,0.1685,0.1685,0.1977,0.198,0.1982]}],[{"header":{"parameterUnit":"m.s-1","parameterCategory":2,"la1":30.2991,"la2":30.254,"lo1":-89.0895,"lo2":-89.0444,"dy":0.0017,"dx":0.0017,"nx":28,"ny":28,"refTime":"2025-08-04T21:00:00:Z","depth":"2","parameterNumber":2,"parameterNumberName":"U-component_of_CURRENTS"},"data":[0,0,0,0,0,0,0,0,0,0,0,0,0,0,0,0,0,0,0,0,0,0,0,0,0,0,0,0,0,0,0,0,0,0,0,0,0,0,0,0,0,0,0,0,0,0,0,0,0,0,0,0,0,0,0,0,0,0,-0.241,-0.2411,0,-0.2504,-0.2506,-0.2507,-0.2543,-0.2543,-0.2543,-0.2543,-0.2625,-0.2627,-0.263,0,0,0,0,0,0,0,0,0,0,0,0,0,-0.2334,-0.2335,-0.241,-0.2411,-0.2412,-0.2504,-0.2506,-0.2507,-0.2543,-0.2543,-0.2543,-0.2542,-0.2624,-0.2627,-0.263,0,0,0,0,0,0,0,0,0,0,0,0,0,-0.2391,-0.2335,-0.241,-0.2442,-0.2446,-0.2504,-0.2506,-0.2507,-0.2543,-0.2543,-0.2543,-0.2542,-0.2623,-0.2627,-0.263,-0.266,0,0,-0.2641,-0.2643,0,0,0,0,0,0,0,0,-0.2388,-0.2394,-0.2436,-0.244,-0.2444,-0.2512,-0.2509,-0.2558,-0.2543,-0.2506,-0.2543,-0.2542,-0.2586,-0.2593,-0.2611,-0.2663,-0.2667,-0.2641,-0.2644,-0.2645,-0.2646,0,0,0,0,0,0,0,-0.2384,-0.2391,-0.2447,-0.2437,-0.2442,-0.2477,-0.2484,-0.2519,-0.2547,-0.2509,-0.2512,-0.2523,-0.2588,-0.2608,-0.2614,-0.2668,-0.2641,-0.2645,-0.2647,-0.2648,-0.2693,-0.2692,0,0,0,0,0,0,-0.2369,-0.2386,-0.2444,-0.245,-0.2415,-0.2478,-0.2486,-0.249,-0.2547,-0.2555,-0.2523,-0.2525,-0.2602,-0.2609,-0.2617,-0.2605,-0.2645,-0.2649,-0.2651,-0.2694,-0.2693,-0.2692,0,0,0,0,0,0,-0.2367,-0.2373,-0.244,-0.2421,-0.2432,-0.2479,-0.2484,-0.2492,-0.2517,-0.2558,-0.2566,-0.254,-0.2602,-0.2611,-0.2649,-0.261,-0.265,-0.2654,-0.2695,-0.2694,-0.2692,-0.2613,0,0,0,0,0,0,-0.2364,-0.2372,-0.2381,-0.242,-0.2432,-0.2449,-0.2485,-0.2495,-0.2524,-0.2527,-0.2575,-0.2582,-0.2602,-0.2644,-0.2653,-0.2616,-0.2656,-0.2696,-0.2694,-0.2693,-0.2617,-0.2609,-0.2603,0,0,0,0,0,-0.2361,-0.2362,-0.238,-0.2388,-0.2439,-0.2448,-0.2456,-0.249,-0.2525,-0.2516,-0.2568,-0.258,-0.2637,-0.2647,-0.2658,-0.262,-0.2697,-0.2695,-0.2693,-0.262,-0.2611,-0.2603,0,0,0,0,0,0,-0.2331,-0.2368,-0.2388,-0.24,-0.2413,-0.2453,-0.2461,-0.2495,-0.2532,-0.2543,-0.2591,-0.2601,-0.26,-0.2636,-0.2646,-0.2626,-0.266,-0.266,-0.2601,-0.2592,-0.2585,-0.2539,-0.2659,0,0,0,0,0,-0.233,-0.2336,-0.2371,-0.2375,-0.2384,-0.2429,-0.2446,-0.2464,-0.2501,-0.2518,-0.2557,-0.2591,-0.26,-0.262,-0.2628,-0.265,-0.2645,-0.2626,-0.2618,-0.2612,-0.2581,-0.2554,-0.254,-0.2684,-0.2684,-0.2684,0,0,-0.2315,-0.234,-0.2342,-0.2369,-0.2389,-0.2392,-0.2436,-0.2447,-0.2448,-0.2521,-0.2542,-0.2564,-0.2596,-0.2592,-0.2596,-0.2623,-0.257,-0.2609,-0.2603,-0.2575,-0.255,-0.2536,-0.2523,-0.2683,-0.2683,-0.2683,0,0,-0.2276,-0.2311,-0.23,-0.2315,-0.2341,-0.2365,-0.2368,-0.2407,-0.242,-0.2454,-0.2481,-0.248,-0.2543,-0.2524,-0.2534,-0.2498,-0.252,-0.2513,-0.2457,-0.2431,-0.2418,-0.2407,-0.2387,-0.2374,-0.2525,-0.2525,-0.2525,0,-0.2256,-0.2257,-0.2295,-0.2292,-0.2302,-0.2351,-0.2338,-0.2358,-0.2404,-0.2409,-0.2445,-0.2475,-0.2492,-0.2463,-0.244,-0.2473,-0.2481,-0.2489,-0.2419,-0.2408,-0.2398,-0.238,-0.2367,-0.2521,-0.2522,-0.2522,-0.2522,0,-0.2208,-0.2219,-0.2211,-0.2226,-0.2238,-0.223,-0.2263,-0.2276,-0.2319,-0.234,-0.2329,-0.2355,-0.237,-0.2366,-0.2398,-0.2329,-0.2364,-0.2399,-0.2437,-0.2378,-0.2364,-0.2352,-0.2515,-0.2517,-0.2518,-0.2519,0,0,-0.2126,-0.2168,-0.2165,-0.2176,-0.2204,-0.221,-0.2206,-0.221,-0.2221,-0.2241,-0.2239,-0.2218,-0.2239,-0.2245,-0.2268,-0.2242,-0.2169,-0.2294,-0.2295,-0.2264,-0.2125,-0.2068,-0.205,-0.2212,-0.221,-0.2207,-0.2146,0,-0.2069,-0.2064,-0.2094,-0.2086,-0.2088,-0.2132,-0.2132,-0.2146,-0.2176,-0.2188,-0.2178,-0.2185,-0.2194,-0.221,-0.2172,-0.2184,-0.2135,-0.2183,-0.2194,-0.2193,-0.2141,-0.2032,-0.1901,-0.1828,-0.2134,-0.2132,-0.2131,0,-0.2003,-0.2018,-0.2001,-0.2043,-0.2046,-0.2048,-0.2071,-0.2078,-0.2093,-0.2117,-0.2107,-0.2131,-0.2081,-0.2112,-0.2049,-0.2096,-0.2078,-0.2077,-0.2077,-0.2033,-0.2111,-0.1936,-0.1795,-0.2111,-0.2113,-0.2114,-0.2116,0,-0.1935,-0.1951,-0.1943,-0.1954,-0.2,-0.1999,-0.2023,-0.2049,-0.206,-0.2072,-0.2091,-0.2055,-0.2056,-0.2018,-0.201,-0.2041,-0.1952,-0.2005,-0.1917,-0.1916,-0.1804,-0.1795,-0.1909,-0.1909,-0.1909,-0.1909,-0.191,0,-0.1868,-0.1861,-0.1918,-0.1917,-0.1915,-0.1964,-0.1965,-0.199,-0.2018,-0.2017,-0.2048,-0.2036,-0.2035,-0.2005,-0.1984,-0.1903,-0.1926,-0.1854,-0.1872,-0.1775,-0.1765,-0.202,-0.2034,-0.1907,-0.1908,-0.1908,-0.1908,0,-0.1789,-0.1823,-0.1824,-0.1871,-0.1884,-0.1888,-0.194,-0.1942,-0.1988,-0.1987,-0.199,-0.2015,-0.197,-0.1954,-0.1903,-0.1868,-0.1807,-0.1768,-0.1654,-0.1655,-0.1797,-0.1808,-0.1654,-0.1651,-0.1648,-0.1646,-0.1644,0,-0.1747,-0.174,-0.1786,-0.1787,-0.1805,-0.1829,-0.1838,-0.1906,-0.1914,-0.196,-0.1943,-0.193,-0.1872,-0.1785,-0.1718,-0.1633,-0.1713,-0.1483,-0.148,-0.1725,-0.1759,-0.1774,-0.1788,-0.1314,-0.131,-0.1306,-0.1303,0,-0.1662,-0.1682,-0.1688,-0.1697,-0.1708,-0.1727,-0.1753,-0.176,-0.1826,-0.1827,-0.1804,-0.1766,-0.1693,-0.1544,-0.1463,-0.1407,-0.1489,-0.1406,-0.1664,-0.1405,-0.1401,-0.1437,-0.1462,-0.1271,-0.1274,-0.1277,-0.1278,-0.128,-0.1589,-0.1576,-0.1586,-0.1584,-0.1602,-0.1598,-0.1567,-0.1603,-0.1594,-0.156,-0.1616,-0.151,-0.149,-0.1274,-0.1199,-0.1149,-0.1253,-0.121,-0.1223,-0.1239,-0.1216,-0.1208,-0.1038,-0.104,-0.1041,-0.1043,-0.1044,0,-0.1483,-0.1476,-0.147,-0.146,-0.1431,-0.1482,-0.1478,-0.1408,-0.1345,-0.1348,-0.1298,-0.1128,-0.1039,-0.1026,-0.089,-0.0866,-0.0872,-0.084,-0.0856,-0.0887,-0.0915,-0.0878,-0.0609,-0.0608,-0.0607,-0.0606,0,0,-0.1422,-0.1372,-0.137,-0.1284,-0.1277,-0.1189,-0.1156,-0.1055,-0.101,-0.0907,-0.0863,-0.0944,-0.0965,-0.0784,-0.0745,-0.065,-0.0757,-0.0611,-0.0956,-0.1002,-0.1029,-0.112,-0.1096,0,0,0,0,0]},{"header":{"parameterUnit":"m.s-1","parameterCategory":2,"la1":30.2991,"la2":30.254,"lo1":-89.0895,"lo2":-89.0444,"dy":0.0017,"dx":0.0017,"nx":28,"ny":28,"refTime":"2025-08-04T21:00:00:Z","depth":"2","parameterNumber":3,"parameterNumberName":"V-component_of_CURRENTS"},"data":[0,0,0,0,0,0,0,0,0,0,0,0,0,0,0,0,0,0,0,0,0,0,0,0,0,0,0,0,0,0,0,0,0,0,0,0,0,0,0,0,0,0,0,0,0,0,0,0,0,0,0,0,0,0,0,0,0,0,-0.037,-0.0369,0,-0.0283,-0.0282,-0.0281,-0.0221,-0.0221,-0.022,-0.022,-0.0065,-0.0061,-0.0058,0,0,0,0,0,0,0,0,0,0,0,0,0,-0.041,-0.041,-0.037,-0.0369,-0.0368,-0.0283,-0.0282,-0.028,-0.0221,-0.0221,-0.022,-0.022,-0.0066,-0.0062,-0.0057,0,0,0,0,0,0,0,0,0,0,0,0,0,-0.0364,-0.041,-0.037,-0.0328,-0.0324,-0.0283,-0.0282,-0.028,-0.0221,-0.0221,-0.022,-0.022,-0.0068,-0.0062,-0.0057,-0.0033,0,0,-0.0039,-0.0037,0,0,0,0,0,0,0,0,-0.0367,-0.0363,-0.0336,-0.0331,-0.0326,-0.0263,-0.0239,-0.0194,-0.0221,-0.0259,-0.022,-0.0219,-0.0126,-0.0115,-0.01,-0.0026,-0.0019,-0.0039,-0.0035,-0.0033,-0.0031,0,0,0,0,0,0,0,-0.037,-0.0366,-0.0335,-0.0334,-0.0329,-0.0289,-0.0282,-0.023,-0.0195,-0.0256,-0.0252,-0.0243,-0.0122,-0.0106,-0.0096,-0.0017,-0.0039,-0.0034,-0.003,-0.0028,0.0111,0.0111,0,0,0,0,0,0,-0.0387,-0.0369,-0.0337,-0.0332,-0.0346,-0.0289,-0.0281,-0.0283,-0.0197,-0.0184,-0.0244,-0.0241,-0.0116,-0.0103,-0.009,-0.004,-0.0033,-0.0028,-0.0024,0.011,0.0111,0.0111,0,0,0,0,0,0,-0.0389,-0.0386,-0.0341,-0.0348,-0.034,-0.0289,-0.0291,-0.0282,-0.0267,-0.0188,-0.0174,-0.0239,-0.0115,-0.0098,-0.0047,-0.0034,-0.0025,-0.002,0.011,0.0111,0.0111,0.005,0,0,0,0,0,0,-0.039,-0.0387,-0.0394,-0.035,-0.034,-0.0322,-0.0291,-0.028,-0.0263,-0.0258,-0.018,-0.0165,-0.0113,-0.0056,-0.0042,-0.0026,-0.0016,0.011,0.011,0.0111,0.0052,0.0048,0.0045,0,0,0,0,0,-0.0392,-0.0404,-0.0395,-0.0391,-0.0352,-0.0322,-0.0313,-0.0274,-0.0263,-0.0259,-0.0207,-0.0167,-0.0042,-0.0052,-0.0035,-0.0017,0.0109,0.011,0.0111,0.0053,0.0049,0.0045,0,0,0,0,0,0,-0.0429,-0.0398,-0.0387,-0.0391,-0.0362,-0.0312,-0.0305,-0.0283,-0.024,-0.0235,-0.0166,-0.0147,-0.0102,-0.0052,-0.0065,0.0025,0.0042,0.0046,-0.0008,-0.0011,-0.0014,-0.0023,-0.0011,0,0,0,0,0,-0.0442,-0.0442,-0.0405,-0.041,-0.0397,-0.0355,-0.0339,-0.0315,-0.0272,-0.0253,-0.0199,-0.0138,-0.0085,-0.0045,0.0003,0.0056,0.009,0.0079,0.0076,0.0073,0.0078,0.0124,0.0126,0.0113,0.0113,0.0113,0,0,-0.0458,-0.0442,-0.0442,-0.0417,-0.0392,-0.0376,-0.0344,-0.0325,-0.0308,-0.0242,-0.0204,-0.0156,-0.0079,-0.0026,0.0001,0.002,0.0094,0.0074,0.0071,0.0077,0.0125,0.0126,0.0127,0.0114,0.0114,0.0114,0,0,-0.0485,-0.0476,-0.0481,-0.046,-0.0428,-0.0399,-0.0399,-0.0354,-0.0328,-0.0292,-0.0239,-0.0182,-0.0106,-0.0038,0.0004,0.0015,0.0063,0.0029,0.0026,0.007,0.0071,0.0073,0.011,0.0115,0.0043,0.0043,0.0043,0,-0.0505,-0.0507,-0.0478,-0.0473,-0.0457,-0.0415,-0.041,-0.0379,-0.0323,-0.0296,-0.0289,-0.0171,-0.0107,-0.0025,-0.0017,0.001,0.0034,0.0031,0.0065,0.0067,0.007,0.0108,0.0114,0.004,0.0041,0.0041,0.0041,0,-0.0529,-0.0529,-0.053,-0.051,-0.0489,-0.0481,-0.0434,-0.0412,-0.0383,-0.0341,-0.0276,-0.0197,-0.0119,-0.009,-0.0045,0.0015,0.0024,0.0039,0.0069,0.0067,0.0108,0.0115,0.0036,0.0037,0.0038,0.0039,0,0,-0.0571,-0.0551,-0.055,-0.0547,-0.0508,-0.0495,-0.0467,-0.042,-0.0398,-0.0342,-0.03,-0.0203,-0.016,-0.0109,-0.0044,0.0008,0.0049,0.003,0.0034,0.0058,0.0137,0.016,0.0171,0.006,0.0062,0.0063,0.0154,0,-0.0596,-0.0604,-0.0579,-0.0579,-0.0576,-0.0529,-0.0505,-0.0457,-0.041,-0.036,-0.0271,-0.0211,-0.0166,-0.0127,-0.007,0.0018,0.0068,0.0023,0.0144,0.0148,0.0161,0.0181,0.0166,0.0247,0.0162,0.0164,0.0165,0,-0.0618,-0.0622,-0.0631,-0.0611,-0.0604,-0.0596,-0.0549,-0.052,-0.0436,-0.0398,-0.0322,-0.0255,-0.0151,-0.013,0.0017,-0.002,0.0053,0.0115,0.012,0.0171,0.0187,0.024,0.0266,0.0179,0.0178,0.0177,0.0176,0,-0.0658,-0.0653,-0.0665,-0.0659,-0.063,-0.0623,-0.0603,-0.0533,-0.0503,-0.0418,-0.0388,-0.0269,-0.0204,-0.0105,0.0033,0.0022,0.0179,0.0182,0.0272,0.0274,0.0304,0.0306,0.0275,0.0275,0.0275,0.0275,0.0274,0,-0.0688,-0.0696,-0.069,-0.0698,-0.0708,-0.0668,-0.0658,-0.0618,-0.0551,-0.0506,-0.0412,-0.0347,-0.0198,-0.0084,0.0024,0.0178,0.0176,0.0279,0.0305,0.0281,0.0281,0.0256,0.0252,0.0278,0.0277,0.0277,0.0276,0,-0.0724,-0.072,-0.0738,-0.073,-0.073,-0.0738,-0.071,-0.0693,-0.063,-0.057,-0.0544,-0.0398,-0.0246,-0.0097,0.0086,0.0174,0.0313,0.0366,0.0326,0.0346,0.0377,0.037,0.0472,0.0474,0.0476,0.0477,0.0478,0,-0.074,-0.0756,-0.0776,-0.0793,-0.0794,-0.08,-0.0797,-0.0742,-0.0715,-0.059,-0.056,-0.04,-0.0264,0.0001,0.0181,0.0372,0.0367,0.0459,0.0445,0.0386,0.0401,0.0391,0.0381,0.0457,0.0458,0.0459,0.0459,0,-0.0773,-0.0784,-0.0803,-0.0844,-0.086,-0.0868,-0.0858,-0.0845,-0.0759,-0.0686,-0.0549,-0.0427,-0.0171,0.0055,0.0288,0.0395,0.0425,0.0478,0.0446,0.0404,0.0378,0.039,0.038,0.0465,0.0464,0.0464,0.0463,0.0463,-0.0795,-0.0823,-0.0852,-0.0886,-0.0909,-0.0916,-0.0909,-0.0867,-0.08,-0.0662,-0.0546,-0.0345,-0.0144,0.0203,0.0364,0.0502,0.0501,0.0538,0.0533,0.0529,0.0505,0.0482,0.0584,0.0584,0.0585,0.0585,0.0585,0,-0.0812,-0.0844,-0.0885,-0.0921,-0.0947,-0.0948,-0.0928,-0.0893,-0.0798,-0.065,-0.0491,-0.0245,0.0013,0.0204,0.0435,0.0574,0.0553,0.0587,0.0535,0.053,0.0525,0.0498,0.0577,0.0577,0.0578,0.0578,0,0,-0.0821,-0.0864,-0.0887,-0.0936,-0.0961,-0.0964,-0.0944,-0.0871,-0.0764,-0.0598,-0.0437,-0.0224,0.0021,0.0181,0.0356,0.0471,0.0457,0.0476,0.0471,0.0384,0.0377,0.0491,0.0444,0,0,0,0,0]}],[{"header":{"parameterUnit":"m.s-1","parameterCategory":2,"la1":30.2991,"la2":30.254,"lo1":-89.0895,"lo2":-89.0444,"dy":0.0017,"dx":0.0017,"nx":28,"ny":28,"refTime":"2025-08-04T21:00:00:Z","depth":"4","parameterNumber":2,"parameterNumberName":"U-component_of_CURRENTS"},"data":[0,0,0,0,0,0,0,0,0,0,0,0,0,0,0,0,0,0,0,0,0,0,0,0,0,0,0,0,0,0,0,0,0,0,0,0,0,0,0,0,0,0,0,0,0,0,0,0,0,0,0,0,0,0,0,0,0,0,-0.1501,-0.1501,0,-0.1508,-0.1507,-0.1507,-0.1522,-0.1523,-0.1524,-0.1524,-0.1583,-0.1583,-0.1584,0,0,0,0,0,0,0,0,0,0,0,0,0,-0.15,-0.1499,-0.1501,-0.1501,-0.1502,-0.1508,-0.1507,-0.1507,-0.1522,-0.1523,-0.1524,-0.1525,-0.1582,-0.1583,-0.1584,0,0,0,0,0,0,0,0,0,0,0,0,0,-0.1499,-0.1499,-0.1501,-0.1513,-0.1515,-0.1508,-0.1507,-0.1507,-0.1522,-0.1523,-0.1524,-0.1525,-0.1582,-0.1583,-0.1585,-0.1573,0,0,-0.1589,-0.1589,0,0,0,0,0,0,0,0,-0.1499,-0.1498,-0.1511,-0.1512,-0.1514,-0.1519,-0.1528,-0.1533,-0.1522,-0.1515,-0.1524,-0.1526,-0.1568,-0.157,-0.1563,-0.1575,-0.1578,-0.1589,-0.159,-0.159,-0.1591,0,0,0,0,0,0,0,-0.1499,-0.1498,-0.15,-0.1511,-0.1513,-0.1518,-0.1518,-0.1529,-0.1533,-0.1516,-0.1518,-0.1525,-0.1569,-0.1561,-0.1565,-0.1579,-0.1589,-0.159,-0.1591,-0.1591,-0.1601,-0.16,0,0,0,0,0,0,-0.1505,-0.1498,-0.1499,-0.15,-0.1513,-0.1517,-0.1518,-0.1513,-0.1532,-0.1537,-0.1524,-0.1525,-0.1559,-0.1563,-0.1567,-0.1598,-0.159,-0.1592,-0.1592,-0.1601,-0.16,-0.16,0,0,0,0,0,0,-0.1505,-0.1504,-0.1499,-0.1503,-0.1504,-0.1517,-0.1511,-0.1513,-0.1534,-0.1539,-0.1544,-0.1547,-0.156,-0.1565,-0.1607,-0.1599,-0.1592,-0.1593,-0.1602,-0.1601,-0.16,-0.1632,0,0,0,0,0,0,-0.1504,-0.1504,-0.1514,-0.1503,-0.1504,-0.1507,-0.151,-0.1512,-0.1536,-0.1539,-0.156,-0.1564,-0.1561,-0.1606,-0.1609,-0.1601,-0.1595,-0.1603,-0.1601,-0.16,-0.1632,-0.1632,-0.1633,0,0,0,0,0,-0.1504,-0.1506,-0.1514,-0.1516,-0.1513,-0.1508,-0.1508,-0.1518,-0.1537,-0.1542,-0.1571,-0.1565,-0.1599,-0.1608,-0.1611,-0.1603,-0.1603,-0.1602,-0.1601,-0.1631,-0.1632,-0.1633,0,0,0,0,0,0,-0.1514,-0.1508,-0.1517,-0.1519,-0.1523,-0.1512,-0.1526,-0.1534,-0.1558,-0.1576,-0.1582,-0.1588,-0.1603,-0.1605,-0.1614,-0.1597,-0.159,-0.1589,-0.1612,-0.1613,-0.1613,-0.1618,-0.1596,0,0,0,0,0,-0.152,-0.1523,-0.1519,-0.1527,-0.153,-0.1535,-0.1542,-0.1549,-0.1563,-0.1575,-0.1592,-0.1602,-0.1593,-0.1612,-0.1601,-0.1622,-0.1617,-0.1609,-0.1609,-0.161,-0.1614,-0.1619,-0.1621,-0.1596,-0.1596,-0.1596,0,0,-0.153,-0.1528,-0.1533,-0.153,-0.1537,-0.1542,-0.1542,-0.1558,-0.1568,-0.1579,-0.1615,-0.1607,-0.1595,-0.1599,-0.1606,-0.1612,-0.1609,-0.1608,-0.161,-0.1613,-0.1618,-0.1621,-0.1623,-0.1595,-0.1595,-0.1595,0,0,-0.1537,-0.1548,-0.1548,-0.1554,-0.1567,-0.1567,-0.1579,-0.1586,-0.1597,-0.1628,-0.1617,-0.1621,-0.1637,-0.1614,-0.1606,-0.1608,-0.1602,-0.1596,-0.1624,-0.1629,-0.1631,-0.1634,-0.1616,-0.1617,-0.161,-0.161,-0.161,0,-0.1548,-0.1543,-0.155,-0.1554,-0.1563,-0.1583,-0.1586,-0.1598,-0.1622,-0.1632,-0.1648,-0.1645,-0.1635,-0.1621,-0.1613,-0.1609,-0.1612,-0.1627,-0.1632,-0.1635,-0.1637,-0.1618,-0.1619,-0.1612,-0.1612,-0.1611,-0.1611,0,-0.1542,-0.1554,-0.1558,-0.1567,-0.1581,-0.1588,-0.1605,-0.1629,-0.1655,-0.1662,-0.1672,-0.1665,-0.1662,-0.1644,-0.1636,-0.1628,-0.1623,-0.1624,-0.1638,-0.1642,-0.1621,-0.1621,-0.1614,-0.1613,-0.1613,-0.1613,0,0,-0.1503,-0.1542,-0.1545,-0.1557,-0.1586,-0.1591,-0.1624,-0.1637,-0.1658,-0.1687,-0.1701,-0.168,-0.1685,-0.1672,-0.1653,-0.166,-0.1662,-0.166,-0.1659,-0.1654,-0.1669,-0.1547,-0.1535,-0.1682,-0.1682,-0.1682,-0.1645,0,-0.1487,-0.15,-0.1524,-0.1547,-0.1552,-0.1591,-0.1614,-0.1644,-0.1671,-0.1696,-0.1696,-0.1699,-0.1692,-0.169,-0.1698,-0.1665,-0.1666,-0.1671,-0.1655,-0.1654,-0.1556,-0.1532,-0.1684,-0.1645,-0.1645,-0.1645,-0.1644,0,-0.145,-0.1467,-0.1485,-0.153,-0.1536,-0.1562,-0.1604,-0.1627,-0.167,-0.1693,-0.1719,-0.1724,-0.1722,-0.1721,-0.1705,-0.1718,-0.1695,-0.1679,-0.1677,-0.1554,-0.1531,-0.1641,-0.1644,-0.1644,-0.1644,-0.1644,-0.1644,0,-0.1393,-0.1432,-0.1448,-0.1463,-0.152,-0.1544,-0.1577,-0.1628,-0.1645,-0.1694,-0.1713,-0.1732,-0.173,-0.1732,-0.1698,-0.1713,-0.1678,-0.169,-0.1557,-0.1548,-0.1661,-0.1659,-0.1678,-0.1678,-0.1678,-0.1678,-0.1679,0,-0.1339,-0.1355,-0.143,-0.1438,-0.1462,-0.1517,-0.1548,-0.1588,-0.1637,-0.1645,-0.1706,-0.17,-0.1739,-0.1724,-0.1705,-0.1616,-0.1683,-0.1547,-0.1528,-0.1671,-0.167,-0.166,-0.1658,-0.1677,-0.1677,-0.1678,-0.1678,0,-0.127,-0.1318,-0.1344,-0.1413,-0.1436,-0.1457,-0.1529,-0.1542,-0.1607,-0.1619,-0.1635,-0.1678,-0.1651,-0.1662,-0.164,-0.1593,-0.1539,-0.1491,-0.1623,-0.1615,-0.1408,-0.1408,-0.1343,-0.1338,-0.1334,-0.1331,-0.1328,0,-0.1233,-0.1241,-0.132,-0.1335,-0.1369,-0.1415,-0.1435,-0.1513,-0.1523,-0.158,-0.1563,-0.1573,-0.1583,-0.1447,-0.1484,-0.1432,-0.1416,-0.1388,-0.1412,-0.1384,-0.1373,-0.1379,-0.1385,-0.1322,-0.1321,-0.132,-0.1319,0,-0.1159,-0.1203,-0.1226,-0.126,-0.129,-0.1316,-0.1354,-0.135,-0.1418,-0.1495,-0.1438,-0.1413,-0.1371,-0.1349,-0.131,-0.1282,-0.1412,-0.1347,-0.1356,-0.1378,-0.1357,-0.1352,-0.1362,-0.1305,-0.1307,-0.1308,-0.1309,0,-0.1106,-0.1108,-0.1146,-0.116,-0.12,-0.1191,-0.123,-0.1223,-0.1242,-0.131,-0.1282,-0.1294,-0.1339,-0.1268,-0.1235,-0.1192,-0.1182,-0.1157,-0.1176,-0.1192,-0.1161,-0.1114,-0.0956,0,0,0,0,0,-0.1043,-0.1027,-0.1037,-0.1043,-0.1081,-0.1098,-0.1156,-0.1196,-0.1266,-0.1182,-0.1227,-0.1179,-0.1124,-0.1139,-0.106,-0.1177,-0.1196,-0.1083,-0.1181,-0.1229,-0.1244,-0.1223,0,0,0,0,0,0,-0.0996,-0.1003,-0.0998,-0.0941,-0.0922,-0.0943,-0.0974,-0.1025,-0.0987,-0.1065,-0.1034,-0.11,-0.1061,-0.1132,-0.1028,-0.1034,-0.107,-0.1104,-0.1101,-0.122,-0.1234,-0.1247,-0.123,0,0,0,0,0]},{"header":{"parameterUnit":"m.s-1","parameterCategory":2,"la1":30.2991,"la2":30.254,"lo1":-89.0895,"lo2":-89.0444,"dy":0.0017,"dx":0.0017,"nx":28,"ny":28,"refTime":"2025-08-04T21:00:00:Z","depth":"4","parameterNumber":3,"parameterNumberName":"V-component_of_CURRENTS"},"data":[0,0,0,0,0,0,0,0,0,0,0,0,0,0,0,0,0,0,0,0,0,0,0,0,0,0,0,0,0,0,0,0,0,0,0,0,0,0,0,0,0,0,0,0,0,0,0,0,0,0,0,0,0,0,0,0,0,0,-0.0297,-0.0297,0,-0.0273,-0.0273,-0.0273,-0.0267,-0.0267,-0.0267,-0.0267,-0.0223,-0.0222,-0.0221,0,0,0,0,0,0,0,0,0,0,0,0,0,-0.03,-0.0301,-0.0297,-0.0297,-0.0296,-0.0273,-0.0273,-0.0273,-0.0267,-0.0267,-0.0267,-0.0267,-0.0223,-0.0222,-0.0221,0,0,0,0,0,0,0,0,0,0,0,0,0,-0.0291,-0.0301,-0.0297,-0.0289,-0.0288,-0.0273,-0.0273,-0.0273,-0.0267,-0.0267,-0.0267,-0.0267,-0.0224,-0.0222,-0.022,-0.0209,0,0,-0.0215,-0.0214,0,0,0,0,0,0,0,0,-0.0292,-0.0292,-0.0291,-0.029,-0.0289,-0.0272,-0.0258,-0.025,-0.0267,-0.0277,-0.0267,-0.0267,-0.0236,-0.0234,-0.0231,-0.0207,-0.0205,-0.0215,-0.0214,-0.0213,-0.0212,0,0,0,0,0,0,0,-0.0293,-0.0292,-0.0289,-0.029,-0.0289,-0.0274,-0.0273,-0.0256,-0.0257,-0.0276,-0.0275,-0.027,-0.0236,-0.0233,-0.023,-0.0204,-0.0215,-0.0213,-0.0212,-0.0211,-0.0194,-0.0195,0,0,0,0,0,0,-0.0295,-0.0293,-0.029,-0.0288,-0.0289,-0.0274,-0.0273,-0.0278,-0.0258,-0.0255,-0.027,-0.0269,-0.0236,-0.0232,-0.0229,-0.0208,-0.0213,-0.0211,-0.021,-0.0193,-0.0194,-0.0195,0,0,0,0,0,0,-0.0295,-0.0295,-0.0291,-0.0288,-0.0286,-0.0274,-0.028,-0.0278,-0.0279,-0.0253,-0.025,-0.0274,-0.0236,-0.0231,-0.0217,-0.0207,-0.021,-0.0209,-0.0193,-0.0194,-0.0194,-0.0171,0,0,0,0,0,0,-0.0295,-0.0296,-0.0303,-0.0289,-0.0287,-0.0284,-0.0279,-0.0277,-0.0275,-0.0275,-0.0255,-0.0251,-0.0236,-0.022,-0.0216,-0.0204,-0.0207,-0.0192,-0.0193,-0.0194,-0.0171,-0.0171,-0.0171,0,0,0,0,0,-0.0296,-0.0304,-0.0304,-0.0303,-0.0297,-0.0284,-0.0282,-0.0273,-0.0275,-0.0276,-0.0264,-0.0252,-0.0225,-0.0219,-0.0214,-0.0201,-0.0191,-0.0193,-0.0194,-0.0171,-0.0171,-0.0171,0,0,0,0,0,0,-0.0314,-0.0303,-0.0303,-0.031,-0.0299,-0.0282,-0.0283,-0.0278,-0.027,-0.0273,-0.0252,-0.0246,-0.0235,-0.0228,-0.0222,-0.0205,-0.0209,-0.021,-0.0193,-0.0193,-0.0193,-0.0183,-0.0206,0,0,0,0,0,-0.032,-0.0324,-0.0309,-0.0317,-0.0311,-0.0299,-0.0295,-0.029,-0.0278,-0.0276,-0.0258,-0.0248,-0.0237,-0.0223,-0.0217,-0.0197,-0.0173,-0.0191,-0.0191,-0.0191,-0.0182,-0.0132,-0.0125,-0.0199,-0.0199,-0.0199,0,0,-0.0331,-0.0325,-0.0329,-0.032,-0.0313,-0.0307,-0.0298,-0.0294,-0.0288,-0.0271,-0.0259,-0.0249,-0.0236,-0.0219,-0.0213,-0.0207,-0.0161,-0.0193,-0.0192,-0.0183,-0.0132,-0.0124,-0.0117,-0.02,-0.02,-0.02,0,0,-0.0348,-0.0348,-0.0353,-0.0344,-0.0331,-0.032,-0.032,-0.0303,-0.0295,-0.0284,-0.0272,-0.0247,-0.0238,-0.0208,-0.0197,-0.0194,-0.017,-0.0207,-0.0181,-0.0133,-0.0125,-0.0118,-0.0084,-0.0074,-0.0197,-0.0197,-0.0197,0,-0.0361,-0.0366,-0.0353,-0.0351,-0.0344,-0.0327,-0.0327,-0.0314,-0.0294,-0.028,-0.0284,-0.0246,-0.0228,-0.0187,-0.0185,-0.0187,-0.0168,-0.0176,-0.0128,-0.0121,-0.0114,-0.0081,-0.007,-0.0196,-0.0196,-0.0196,-0.0196,0,-0.0375,-0.038,-0.0381,-0.0373,-0.0363,-0.0361,-0.0337,-0.0327,-0.0317,-0.0295,-0.0262,-0.023,-0.0202,-0.0194,-0.0185,-0.0131,-0.0136,-0.0138,-0.0119,-0.0105,-0.0072,-0.0061,-0.0194,-0.0195,-0.0195,-0.0195,0,0,-0.0402,-0.0393,-0.0395,-0.0395,-0.0375,-0.037,-0.0355,-0.0327,-0.0315,-0.0282,-0.0253,-0.021,-0.0184,-0.017,-0.0146,-0.0092,-0.0023,-0.0093,-0.0091,-0.0043,0.0075,0.005,0.006,-0.0016,-0.0013,-0.0012,0.0078,0,-0.0418,-0.0425,-0.0411,-0.0415,-0.0413,-0.039,-0.0376,-0.0348,-0.0322,-0.0288,-0.023,-0.0202,-0.0178,-0.0163,-0.0101,-0.0055,0.0006,-0.0048,0.0039,0.0042,0.0033,0.0072,-0.0005,0.0086,0.0088,0.009,0.0091,0,-0.043,-0.0433,-0.0444,-0.0433,-0.043,-0.0431,-0.0404,-0.0388,-0.033,-0.0308,-0.025,-0.0213,-0.0129,-0.012,0.0007,-0.0034,0.0027,0.0072,0.0077,0.0056,0.0038,0.0067,0.0111,0.011,0.0108,0.0107,0.0106,0,-0.045,-0.0451,-0.0464,-0.0461,-0.0448,-0.0449,-0.044,-0.0396,-0.0378,-0.0317,-0.0297,-0.02,-0.0159,-0.0063,0.0032,0.0021,0.0165,0.0159,0.0201,0.0199,0.0185,0.0177,0.0265,0.0265,0.0265,0.0264,0.0264,0,-0.0462,-0.0472,-0.0481,-0.0488,-0.0502,-0.0478,-0.0479,-0.0454,-0.041,-0.0381,-0.031,-0.0262,-0.0143,-0.005,0.0039,0.0151,0.0175,0.022,0.023,0.0189,0.018,0.0193,0.0183,0.0268,0.0267,0.0266,0.0266,0,-0.0477,-0.0482,-0.0502,-0.0509,-0.0515,-0.0526,-0.052,-0.0511,-0.0469,-0.0429,-0.041,-0.0301,-0.0183,-0.0063,0.0091,0.0149,0.0262,0.0299,0.0243,0.0245,0.0262,0.0252,0.0357,0.0357,0.0357,0.0357,0.0357,0,-0.0483,-0.0497,-0.0531,-0.0552,-0.0562,-0.0576,-0.0582,-0.0549,-0.0532,-0.0445,-0.0423,-0.0306,-0.0224,-0.0018,0.0099,0.0266,0.0286,0.0335,0.0312,0.0277,0.0276,0.0266,0.0257,0.0357,0.0357,0.0357,0.0357,0,-0.0496,-0.0519,-0.054,-0.0586,-0.0612,-0.0627,-0.063,-0.0619,-0.0564,-0.053,-0.0414,-0.0297,-0.0166,-0.0013,0.011,0.0232,0.0295,0.0336,0.0337,0.0315,0.0279,0.0276,0.0266,0.0358,0.0358,0.0358,0.0358,0,-0.0513,-0.0538,-0.0575,-0.061,-0.0648,-0.0661,-0.0659,-0.0619,-0.0589,-0.0487,-0.0446,-0.0291,-0.0197,-0.0029,0.0092,0.0197,0.0221,0.0245,0.0251,0.0252,0.0186,0.0122,0.0178,0,0,0,0,0,-0.0521,-0.055,-0.059,-0.0629,-0.0668,-0.0684,-0.068,-0.0664,-0.0613,-0.0535,-0.0485,-0.0353,-0.0157,-0.0065,0.0039,0.0073,0.0219,0.0195,0.0244,0.0359,0.0359,0.0296,0,0,0,0,0,0,-0.0528,-0.0571,-0.059,-0.0635,-0.0665,-0.0696,-0.0694,-0.066,-0.0603,-0.0537,-0.0427,-0.0349,-0.0158,-0.0219,0.0034,0.0068,0.0109,0.0293,0.0295,0.0359,0.0359,0.0359,0.0294,0,0,0,0,0]}]]